Location: Chervonnoye
(48.6000°N, 34.4000°E)
Time: 21:03:01
(UTC+00:00)

RS-44 - Pass Details

Date: 02 December 2021
Orbit: 1175 x 1510 km, 82.5° (Epoch: 19 January)

Event Time Altitude Azimuth Distance (km) Brightness Sun altitude
Rises 19:16:50 0° 238° (WSW) 4,101 ? -52.3°
Enters shadow 19:17:59 - 243° (WSW) 3,761 ? -52.5°
Exits shadow 19:32:56 - 359° (N) 3,696 ? -54.5°
Sets 19:34:19 0° 5° (N) 4,101 ? -54.7°
